Time,TemperatureF,DewpointF,PressureIn,WindDirection,WindDirectionDegrees,WindSpeedMPH,WindSpeedGustMPH,Humidity,HourlyPrecipIn,Conditions,Clouds,dailyrainin,SolarRadiationWatts/m^2,SoftwareType,DateUTC
2013-06-09 00:02:00,55.0,52.0,-100.00,NE,55,1.0,4.0,88,0.00,,,0.00,0.000000,,2013-06-09 05:02:00,
2013-06-09 00:12:00,55.0,52.0,-100.00,NE,55,1.0,4.0,88,0.00,,,0.00,0.000000,,2013-06-09 05:12:00,
2013-06-09 00:32:00,54.0,51.0,-100.00,ENE,61,1.0,4.0,91,0.00,,,0.00,0.000000,,2013-06-09 05:32:00,
2013-06-09 00:42:00,54.0,51.0,-100.00,ENE,61,1.0,4.0,91,0.00,,,0.00,0.000000,,2013-06-09 05:42:00,
2013-06-09 00:52:00,54.0,51.0,-100.00,ENE,61,1.0,4.0,91,0.00,,,0.00,0.000000,,2013-06-09 05:52:00,
2013-06-09 01:02:00,54.0,51.0,-100.00,ENE,61,1.0,4.0,91,0.00,,,0.00,0.000000,,2013-06-09 06:02:00,
2013-06-09 01:12:00,54.0,51.0,-100.00,ENE,61,1.0,4.0,91,0.00,,,0.00,0.000000,,2013-06-09 06:12:00,
2013-06-09 01:32:00,53.0,51.0,-100.00,NE,44,1.0,4.0,93,0.00,,,0.00,0.000000,,2013-06-09 06:32:00,
2013-06-09 01:42:00,53.0,51.0,-100.00,NE,44,1.0,4.0,93,0.00,,,0.00,0.000000,,2013-06-09 06:42:00,
2013-06-09 01:52:00,53.0,51.0,-100.00,NE,44,1.0,4.0,93,0.00,,,0.00,0.000000,,2013-06-09 06:52:00,
2013-06-09 02:02:00,53.0,51.0,-100.00,NE,44,1.0,4.0,93,0.00,,,0.00,0.000000,,2013-06-09 07:02:00,
2013-06-09 02:12:00,53.0,51.0,-100.00,NE,44,1.0,4.0,93,0.00,,,0.00,0.000000,,2013-06-09 07:12:00,
2013-06-09 02:32:00,54.0,51.0,-100.00,ENE,69,2.0,5.0,90,0.00,,,0.00,0.000000,,2013-06-09 07:32:00,
2013-06-09 02:42:00,54.0,51.0,-100.00,ENE,69,2.0,5.0,90,0.00,,,0.00,0.000000,,2013-06-09 07:42:00,
2013-06-09 02:52:00,54.0,51.0,-100.00,ENE,69,2.0,5.0,90,0.00,,,0.00,0.000000,,2013-06-09 07:52:00,
2013-06-09 03:02:00,54.0,51.0,-100.00,ENE,69,2.0,5.0,90,0.00,,,0.00,0.000000,,2013-06-09 08:02:00,
2013-06-09 03:12:00,54.0,51.0,-100.00,ENE,69,2.0,5.0,90,0.00,,,0.00,0.000000,,2013-06-09 08:12:00,
2013-06-09 03:32:00,55.0,51.0,-100.00,East,79,2.0,6.0,86,0.00,,,-99.99,0.000000,,2013-06-09 08:32:00,
2013-06-09 03:42:00,55.0,51.0,-100.00,East,79,2.0,6.0,86,0.00,,,-99.99,0.000000,,2013-06-09 08:42:00,
2013-06-09 03:53:00,55.0,51.0,-100.00,East,79,2.0,6.0,86,0.00,,,-99.99,0.000000,,2013-06-09 08:53:00,
2013-06-09 04:02:00,55.0,51.0,-100.00,East,79,2.0,6.0,86,0.00,,,-99.99,0.000000,,2013-06-09 09:02:00,
2013-06-09 04:12:00,55.0,51.0,-100.00,East,79,2.0,6.0,86,0.00,,,-99.99,0.000000,,2013-06-09 09:12:00,
2013-06-09 04:33:00,55.0,51.0,-100.00,ENE,71,2.0,6.0,87,0.00,,,0.00,0.000000,,2013-06-09 09:33:00,
2013-06-09 04:43:00,55.0,51.0,-100.00,ENE,71,2.0,6.0,87,0.00,,,0.00,0.000000,,2013-06-09 09:43:00,
2013-06-09 04:52:00,55.0,51.0,-100.00,ENE,71,2.0,6.0,87,0.00,,,0.00,0.000000,,2013-06-09 09:52:00,
2013-06-09 05:03:00,55.0,51.0,-100.00,ENE,71,2.0,6.0,87,0.00,,,0.00,0.000000,,2013-06-09 10:03:00,
2013-06-09 05:12:00,55.0,51.0,-100.00,ENE,71,2.0,6.0,87,0.00,,,0.00,0.000000,,2013-06-09 10:12:00,
2013-06-09 05:32:00,55.0,51.0,-100.00,ENE,64,2.0,6.0,85,0.00,,,0.00,1.000000,,2013-06-09 10:32:00,
2013-06-09 05:43:00,55.0,51.0,-100.00,ENE,64,2.0,6.0,85,0.00,,,0.00,1.000000,,2013-06-09 10:43:00,
2013-06-09 05:52:00,55.0,51.0,-100.00,ENE,64,2.0,6.0,85,0.00,,,0.00,1.000000,,2013-06-09 10:52:00,
2013-06-09 06:02:00,55.0,51.0,-100.00,ENE,64,2.0,6.0,85,0.00,,,0.00,1.000000,,2013-06-09 11:02:00,
2013-06-09 06:12:00,55.0,51.0,-100.00,ENE,64,2.0,6.0,85,0.00,,,0.00,1.000000,,2013-06-09 11:12:00,
2013-06-09 06:32:00,56.0,51.0,-100.00,ENE,76,3.0,7.0,83,0.00,,,0.00,8.000000,,2013-06-09 11:32:00,
2013-06-09 06:42:00,56.0,51.0,-100.00,ENE,76,3.0,7.0,83,0.00,,,0.00,8.000000,,2013-06-09 11:42:00,
2013-06-09 06:53:00,56.0,51.0,-100.00,ENE,76,3.0,7.0,83,0.00,,,0.00,8.000000,,2013-06-09 11:53:00,
2013-06-09 07:02:00,56.0,51.0,-100.00,ENE,76,3.0,7.0,83,0.00,,,0.00,8.000000,,2013-06-09 12:02:00,
2013-06-09 07:12:00,56.0,51.0,-100.00,ENE,76,3.0,7.0,83,0.00,,,0.00,8.000000,,2013-06-09 12:12:00,
2013-06-09 07:32:00,55.0,52.0,-100.00,ENE,73,2.0,8.0,89,0.01,,,0.01,22.000000,,2013-06-09 12:32:00,
2013-06-09 07:42:00,55.0,52.0,-100.00,ENE,73,2.0,8.0,89,0.01,,,0.01,22.000000,,2013-06-09 12:42:00,
2013-06-09 07:52:00,55.0,52.0,-100.00,ENE,73,2.0,8.0,89,0.01,,,0.01,22.000000,,2013-06-09 12:52:00,
2013-06-09 08:02:00,55.0,52.0,-100.00,ENE,73,2.0,8.0,89,0.01,,,0.01,22.000000,,2013-06-09 13:02:00,
2013-06-09 08:12:00,55.0,52.0,-100.00,ENE,73,2.0,8.0,89,0.01,,,0.01,22.000000,,2013-06-09 13:12:00,
2013-06-09 08:42:00,56.0,53.0,-100.00,East,89,4.0,12.0,91,0.04,,,0.05,44.000000,,2013-06-09 13:42:00,
2013-06-09 08:52:00,56.0,53.0,-100.00,East,89,4.0,12.0,91,0.04,,,0.05,44.000000,,2013-06-09 13:52:00,
2013-06-09 09:02:00,56.0,53.0,-100.00,East,89,4.0,12.0,91,0.04,,,0.05,44.000000,,2013-06-09 14:02:00,
2013-06-09 09:12:00,56.0,53.0,-100.00,East,89,4.0,12.0,91,0.04,,,0.05,44.000000,,2013-06-09 14:12:00,
2013-06-09 09:32:00,56.0,54.0,-100.00,East,89,4.0,11.0,93,0.08,,,0.13,56.000000,,2013-06-09 14:32:00,
2013-06-09 09:43:00,56.0,54.0,-100.00,East,89,4.0,11.0,93,0.08,,,0.13,56.000000,,2013-06-09 14:43:00,
2013-06-09 09:52:00,56.0,54.0,-100.00,East,89,4.0,11.0,93,0.08,,,0.13,56.000000,,2013-06-09 14:52:00,
2013-06-09 10:02:00,56.0,54.0,-100.00,East,89,4.0,11.0,93,0.08,,,0.13,56.000000,,2013-06-09 15:02:00,
2013-06-09 10:12:00,56.0,54.0,-100.00,East,89,4.0,11.0,93,0.08,,,0.13,56.000000,,2013-06-09 15:12:00,
2013-06-09 10:33:00,56.0,54.0,-100.00,East,82,5.0,12.0,94,0.13,,,0.26,68.000000,,2013-06-09 15:33:00,
2013-06-09 10:43:00,56.0,54.0,-100.00,East,82,5.0,12.0,94,0.13,,,0.26,68.000000,,2013-06-09 15:43:00,
2013-06-09 10:53:00,56.0,54.0,-100.00,East,82,5.0,12.0,94,0.13,,,0.26,68.000000,,2013-06-09 15:53:00,
2013-06-09 11:03:00,56.0,54.0,-100.00,East,82,5.0,12.0,94,0.13,,,0.26,68.000000,,2013-06-09 16:03:00,
2013-06-09 11:13:00,56.0,54.0,-100.00,East,82,5.0,12.0,94,0.13,,,0.26,68.000000,,2013-06-09 16:13:00,
2013-06-09 11:33:00,55.0,53.0,-100.00,ENE,66,5.0,14.0,94,0.18,,,0.44,83.000000,,2013-06-09 16:33:00,
2013-06-09 11:43:00,55.0,53.0,-100.00,ENE,66,5.0,14.0,94,0.18,,,0.44,83.000000,,2013-06-09 16:43:00,
2013-06-09 11:53:00,55.0,53.0,-100.00,ENE,66,5.0,14.0,94,0.18,,,0.44,83.000000,,2013-06-09 16:53:00,
2013-06-09 12:03:00,55.0,53.0,-100.00,ENE,66,5.0,14.0,94,0.18,,,0.44,83.000000,,2013-06-09 17:03:00,
2013-06-09 12:12:00,55.0,53.0,-100.00,ENE,66,5.0,14.0,94,0.18,,,0.44,83.000000,,2013-06-09 17:12:00,
2013-06-09 12:32:00,55.0,53.0,-100.00,ENE,68,7.0,17.0,93,0.19,,,0.63,46.000000,,2013-06-09 17:32:00,
2013-06-09 12:42:00,55.0,53.0,-100.00,ENE,68,7.0,17.0,93,0.19,,,0.63,46.000000,,2013-06-09 17:42:00,
2013-06-09 12:52:00,55.0,53.0,-100.00,ENE,68,7.0,17.0,93,0.19,,,0.63,46.000000,,2013-06-09 17:52:00,
2013-06-09 13:02:00,55.0,53.0,-100.00,ENE,68,7.0,17.0,93,0.19,,,0.63,46.000000,,2013-06-09 18:02:00,
2013-06-09 13:12:00,55.0,53.0,-100.00,ENE,68,7.0,17.0,93,0.19,,,0.63,46.000000,,2013-06-09 18:12:00,
2013-06-09 13:33:00,55.0,53.0,-100.00,ENE,64,6.0,16.0,93,0.06,,,0.69,44.000000,,2013-06-09 18:33:00,
2013-06-09 13:42:00,55.0,53.0,-100.00,ENE,64,6.0,16.0,93,0.06,,,0.69,44.000000,,2013-06-09 18:42:00,
2013-06-09 13:52:00,55.0,53.0,-100.00,ENE,64,6.0,16.0,93,0.06,,,0.69,44.000000,,2013-06-09 18:52:00,
2013-06-09 14:02:00,55.0,53.0,-100.00,ENE,64,6.0,16.0,93,0.06,,,0.69,44.000000,,2013-06-09 19:02:00,
2013-06-09 14:12:00,55.0,53.0,-100.00,ENE,64,6.0,16.0,93,0.06,,,0.69,44.000000,,2013-06-09 19:12:00,
2013-06-09 14:32:00,56.0,54.0,-100.00,ENE,78,5.0,14.0,92,0.01,,,0.70,36.000000,,2013-06-09 19:32:00,
2013-06-09 14:43:00,56.0,54.0,-100.00,ENE,78,5.0,14.0,92,0.01,,,0.70,36.000000,,2013-06-09 19:43:00,
2013-06-09 14:52:00,56.0,54.0,-100.00,ENE,78,5.0,14.0,92,0.01,,,0.70,36.000000,,2013-06-09 19:52:00,
2013-06-09 15:02:00,56.0,54.0,-100.00,ENE,78,5.0,14.0,92,0.01,,,0.70,36.000000,,2013-06-09 20:02:00,
2013-06-09 15:12:00,56.0,54.0,-100.00,ENE,78,5.0,14.0,92,0.01,,,0.70,36.000000,,2013-06-09 20:12:00,
2013-06-09 15:32:00,56.0,54.0,-100.00,ENE,67,2.0,10.0,94,0.10,,,0.80,41.000000,,2013-06-09 20:32:00,
2013-06-09 15:42:00,56.0,54.0,-100.00,ENE,67,2.0,10.0,94,0.10,,,0.80,41.000000,,2013-06-09 20:42:00,
2013-06-09 15:52:00,56.0,54.0,-100.00,ENE,67,2.0,10.0,94,0.10,,,0.80,41.000000,,2013-06-09 20:52:00,
2013-06-09 16:02:00,56.0,54.0,-100.00,ENE,67,2.0,10.0,94,0.10,,,0.80,41.000000,,2013-06-09 21:02:00,
2013-06-09 16:12:00,56.0,54.0,-100.00,ENE,67,2.0,10.0,94,0.10,,,0.80,41.000000,,2013-06-09 21:12:00,
2013-06-09 16:33:00,57.0,56.0,-100.00,ENE,71,3.0,8.0,95,0.07,,,0.87,64.000000,,2013-06-09 21:33:00,
2013-06-09 16:44:00,57.0,56.0,-100.00,ENE,71,3.0,8.0,95,0.07,,,0.87,64.000000,,2013-06-09 21:44:00,
2013-06-09 16:53:00,57.0,56.0,-100.00,ENE,71,3.0,8.0,95,0.07,,,0.87,64.000000,,2013-06-09 21:53:00,
2013-06-09 17:02:00,57.0,56.0,-100.00,ENE,71,3.0,8.0,95,0.07,,,0.87,64.000000,,2013-06-09 22:02:00,
2013-06-09 17:13:00,57.0,56.0,-100.00,ENE,71,3.0,8.0,95,0.07,,,0.87,64.000000,,2013-06-09 22:13:00,
2013-06-09 17:33:00,58.0,56.0,-100.00,ENE,61,3.0,9.0,94,0.01,,,0.88,100.000000,,2013-06-09 22:33:00,
2013-06-09 17:42:00,58.0,56.0,-100.00,ENE,61,3.0,9.0,94,0.01,,,0.88,100.000000,,2013-06-09 22:42:00,
2013-06-09 17:52:00,58.0,56.0,-100.00,ENE,61,3.0,9.0,94,0.01,,,0.88,100.000000,,2013-06-09 22:52:00,
2013-06-09 18:02:00,58.0,56.0,-100.00,ENE,61,3.0,9.0,94,0.01,,,0.88,100.000000,,2013-06-09 23:02:00,
2013-06-09 18:12:00,58.0,56.0,-100.00,ENE,61,3.0,9.0,94,0.01,,,0.88,100.000000,,2013-06-09 23:12:00,
2013-06-09 18:32:00,60.0,57.0,-100.00,East,90,4.0,12.0,91,0.00,,,0.88,150.000000,,2013-06-09 23:32:00,
2013-06-09 18:43:00,60.0,57.0,-100.00,East,90,4.0,12.0,91,0.00,,,0.88,150.000000,,2013-06-09 23:43:00,
2013-06-09 18:52:00,60.0,57.0,-100.00,East,90,4.0,12.0,91,0.00,,,0.88,150.000000,,2013-06-09 23:52:00,
2013-06-09 19:02:00,60.0,57.0,-100.00,East,90,4.0,12.0,91,0.00,,,0.88,150.000000,,2013-06-10 00:02:00,
2013-06-09 19:13:00,60.0,57.0,-100.00,East,90,4.0,12.0,91,0.00,,,0.88,150.000000,,2013-06-10 00:13:00,
2013-06-09 19:42:00,60.0,56.0,-100.00,ENE,65,3.0,14.0,88,0.00,,,0.88,233.000000,,2013-06-10 00:42:00,
2013-06-09 19:52:00,60.0,56.0,-100.00,ENE,65,3.0,14.0,88,0.00,,,0.88,233.000000,,2013-06-10 00:52:00,
2013-06-09 20:02:00,60.0,56.0,-100.00,ENE,65,3.0,14.0,88,0.00,,,0.88,233.000000,,2013-06-10 01:02:00,
2013-06-09 20:12:00,60.0,56.0,-100.00,ENE,65,3.0,14.0,88,0.00,,,0.88,233.000000,,2013-06-10 01:12:00,
2013-06-09 20:32:00,59.0,56.0,-100.00,NE,54,2.0,7.0,91,0.00,,,0.88,33.000000,,2013-06-10 01:32:00,
2013-06-09 20:43:00,59.0,56.0,-100.00,NE,54,2.0,7.0,91,0.00,,,0.88,33.000000,,2013-06-10 01:43:00,
2013-06-09 20:52:00,59.0,56.0,-100.00,NE,54,2.0,7.0,91,0.00,,,0.88,33.000000,,2013-06-10 01:52:00,
2013-06-09 21:02:00,59.0,56.0,-100.00,NE,54,2.0,7.0,91,0.00,,,0.88,33.000000,,2013-06-10 02:02:00,
2013-06-09 21:12:00,59.0,56.0,-100.00,NE,54,2.0,7.0,91,0.00,,,0.88,33.000000,,2013-06-10 02:12:00,
2013-06-09 21:32:00,58.0,56.0,-100.00,NE,56,1.0,8.0,93,0.00,,,0.88,10.000000,,2013-06-10 02:32:00,
2013-06-09 21:42:00,58.0,56.0,-100.00,NE,56,1.0,8.0,93,0.00,,,0.88,10.000000,,2013-06-10 02:42:00,
2013-06-09 21:52:00,58.0,56.0,-100.00,NE,56,1.0,8.0,93,0.00,,,0.88,10.000000,,2013-06-10 02:52:00,
2013-06-09 22:02:00,58.0,56.0,-100.00,NE,56,1.0,8.0,93,0.00,,,0.88,10.000000,,2013-06-10 03:02:00,
2013-06-09 22:12:00,58.0,56.0,-100.00,NE,56,1.0,8.0,93,0.00,,,0.88,10.000000,,2013-06-10 03:12:00,
2013-06-09 22:33:00,58.0,57.0,-100.00,NNW,348,1.0,3.0,96,0.00,,,0.88,0.000000,,2013-06-10 03:33:00,
2013-06-09 22:43:00,58.0,57.0,-100.00,NNW,348,1.0,3.0,96,0.00,,,0.88,0.000000,,2013-06-10 03:43:00,
2013-06-09 22:53:00,58.0,57.0,-100.00,NNW,348,1.0,3.0,96,0.00,,,0.88,0.000000,,2013-06-10 03:53:00,
2013-06-09 23:03:00,58.0,57.0,-100.00,NNW,348,1.0,3.0,96,0.00,,,0.88,0.000000,,2013-06-10 04:03:00,
2013-06-09 23:12:00,58.0,57.0,-100.00,NNW,348,1.0,3.0,96,0.00,,,0.88,0.000000,,2013-06-10 04:12:00,
2013-06-09 23:33:00,57.0,56.0,-100.00,North,7,0.0,4.0,96,0.00,,,0.88,0.000000,,2013-06-10 04:33:00,
2013-06-09 23:42:00,57.0,56.0,-100.00,North,7,0.0,4.0,96,0.00,,,0.88,0.000000,,2013-06-10 04:42:00,
2013-06-09 23:53:00,57.0,56.0,-100.00,North,7,0.0,4.0,96,0.00,,,0.88,0.000000,,2013-06-10 04:53:00,